Pittsfield, IL

12:27 PM CDT on August 25, 2016 (GMT -0500)
Pittsfield Penstone Municipal

Weather History for KPPQ - March, 2014

Change the Weather History Date:

Saturday, March 8, 2014

  Actual Average (KUIN) Record (KUIN)
Temperature  
Mean Temperature 36 °F 39 °F  
Max Temperature 38 °F 48 °F 77 °F (2000)
Min Temperature 33 °F 30 °F 0 °F (1996)
Degree Days  
Heating Degree Days 30 26  
Month to date heating degree days 222  
Since 1 July heating degree days 4564  
Cooling Degree Days 0 0  
Month to date cooling degree days 0  
Year to date cooling degree days 0  
Moisture  
Dew Point 32 °F    
Average Humidity 88    
Maximum Humidity 93    
Minimum Humidity 81    
Precipitation  
Precipitation 0.01 in 0.08 in 1.59 in (1998)
Month to date precipitation 0.63  
Year to date precipitation 4.03  
Sea Level Pressure  
Sea Level Pressure 30.18 in    
Wind  
Wind Speed 8 mph (NNW)    
Max Wind Speed 12 mph    
Max Gust Speed 16 mph    
Visibility 2 miles    
Events Rain    
T = Trace of Precipitation, MM = Missing Value Source: NWS Daily Summary

Daily Weather History Graph

Daily Weather History Graph

Search for Another Location

Airport or City:

Trip Planner

Search our weather history database for the weather conditions in past years. The results will help you decide how hot, cold, wet, or windy it might be!

Date:

Astronomy

Mar. 08, 2014 Rise Set
Actual Time 6:25 AM CST 6:02 PM CST
Civil Twilight 5:58 AM CST 6:29 PM CST
Nautical Twilight 5:27 AM CST 7:00 PM CST
Astronomical Twilight 4:56 AM CST 7:32 PM CST
Moon 11:08 AM CST (3/8) 12:59 AM CST (3/8)
Length of Visible Light 12h 31m
Length of Day
11h 37m
First Quarter, 52% of the Moon is Illuminated
Mar 8
First Quarter
Mar 16
Full
Mar 23
Last Quarter
Mar 30
New
Apr 7
First Quarter

Hourly Weather History & Observations

Time (CST) Temp. Windchill Dew Point Humidity Pressure Visibility Wind Dir Wind Speed Gust Speed Precip Events Conditions
12:15 AM 38.3 °F 31.4 °F 33.8 °F 84% 30.01 in 4.0 mi NNW 10.4 mph - N/A   Scattered Clouds
12:35 AM 37.8 °F 30.2 °F 33.4 °F 84% 30.01 in 3.0 mi North 11.5 mph - N/A   Haze
12:55 AM 37.2 °F 30.0 °F 32.9 °F 84% 30.02 in 3.0 mi North 10.4 mph - N/A   Scattered Clouds
1:15 AM 37.0 °F 29.8 °F 32.7 °F 84% 30.02 in 3.0 mi North 10.4 mph - N/A   Scattered Clouds
1:35 AM 36.7 °F 31.2 °F 32.5 °F 85% 30.02 in 2.5 mi North 6.9 mph - N/A Rain Light Rain
1:55 AM 36.5 °F 31.8 °F 32.9 °F 87% 30.03 in 2.5 mi North 5.8 mph - N/A Rain Light Rain
2:15 AM 36.0 °F 28.5 °F 32.9 °F 89% 30.02 in 2.0 mi NNW 10.4 mph - N/A Rain Light Rain
2:35 AM 36.0 °F 28.0 °F 33.3 °F 90% 30.01 in 1.8 mi North 11.5 mph 16.1 mph N/A Rain Light Rain
2:55 AM 35.6 °F 29.9 °F 33.1 °F 91% 30.02 in 1.2 mi NNW 6.9 mph - 0.01 in Rain Light Rain
3:15 AM 35.4 °F 30.5 °F 33.1 °F 91% 30.03 in 1.2 mi NW 5.8 mph - N/A   Overcast
3:35 AM 35.1 °F 28.6 °F 32.9 °F 92% 30.03 in 1.2 mi NNW 8.1 mph - N/A   Overcast
3:55 AM 35.1 °F 30.1 °F 32.9 °F 92% 30.04 in 1.5 mi NW 5.8 mph - N/A   Overcast
4:15 AM 34.9 °F 29.0 °F 32.5 °F 91% 30.05 in 1.2 mi NW 6.9 mph - N/A   Overcast
4:35 AM 34.9 °F 29.0 °F 32.5 °F 91% 30.06 in 1.2 mi NW 6.9 mph - N/A   Overcast
4:55 AM 34.7 °F 28.1 °F 32.4 °F 91% 30.06 in 1.2 mi NW 8.1 mph - N/A   Overcast
5:15 AM 34.3 °F 27.7 °F 32.2 °F 92% 30.07 in 1.2 mi NNW 8.1 mph - N/A   Overcast
5:35 AM 34.3 °F 28.4 °F 32.2 °F 92% 30.08 in 1.2 mi NNW 6.9 mph - N/A   Overcast
5:55 AM 34.2 °F 26.8 °F 32.0 °F 92% 30.08 in 1.2 mi NNW 9.2 mph - N/A   Overcast
6:15 AM 34.2 °F 26.8 °F 32.0 °F 92% 30.09 in 1.2 mi NNW 9.2 mph - N/A   Overcast
6:35 AM 34.2 °F 25.7 °F 32.0 °F 92% 30.09 in 1.2 mi NNW 11.5 mph - N/A   Overcast
6:55 AM 34.3 °F 27.0 °F 32.2 °F 92% 30.10 in 1.2 mi NNW 9.2 mph - N/A   Overcast
7:15 AM 34.7 °F 28.1 °F 32.2 °F 91% 30.11 in 1.5 mi NNW 8.1 mph - N/A   Overcast
7:35 AM 34.7 °F 27.5 °F 32.4 °F 91% 30.12 in 1.5 mi NNW 9.2 mph - N/A   Overcast
7:55 AM 34.9 °F 28.3 °F 32.4 °F 91% 30.13 in 1.5 mi NNW 8.1 mph - N/A   Overcast
8:15 AM 35.1 °F 28.6 °F 32.5 °F 91% 30.13 in 1.5 mi NNW 8.1 mph - N/A   Overcast
8:35 AM 35.4 °F 27.8 °F 32.9 °F 91% 30.13 in 1.5 mi NNW 10.4 mph - N/A   Overcast
8:55 AM 35.6 °F 28.0 °F 32.9 °F 90% 30.15 in 1.8 mi NNW 10.4 mph - N/A   Overcast
9:15 AM 36.0 °F 29.0 °F 33.1 °F 89% 30.16 in 1.8 mi NNW 9.2 mph - N/A   Overcast
9:35 AM 36.0 °F 28.5 °F 32.9 °F 89% 30.18 in 1.8 mi NNW 10.4 mph - N/A   Overcast
9:55 AM 36.5 °F 30.3 °F 33.3 °F 88% 30.18 in 1.8 mi NNW 8.1 mph - N/A   Overcast
10:15 AM 36.7 °F 30.5 °F 33.6 °F 89% 30.19 in 1.8 mi NNW 8.1 mph - N/A   Overcast
10:35 AM 36.7 °F 29.9 °F 33.6 °F 89% 30.20 in 1.8 mi NNW 9.2 mph - N/A   Overcast
10:55 AM 36.7 °F 31.2 °F 33.4 °F 88% 30.21 in 1.8 mi NNW 6.9 mph - N/A   Overcast
11:15 AM 36.7 °F 30.5 °F 33.4 °F 88% 30.21 in 1.8 mi NNW 8.1 mph - N/A   Overcast
11:35 AM 37.0 °F 30.4 °F 33.6 °F 87% 30.21 in 1.8 mi North 9.2 mph - N/A   Overcast
11:55 AM 37.0 °F 31.0 °F 33.6 °F 87% 30.20 in 1.8 mi North 8.1 mph - N/A   Overcast
12:15 PM 36.9 °F 30.1 °F 33.4 °F 87% 30.20 in 1.8 mi North 9.2 mph - N/A   Overcast
12:35 PM 36.7 °F 30.5 °F 33.4 °F 88% 30.20 in 1.8 mi North 8.1 mph - N/A   Overcast
12:55 PM 36.7 °F 29.4 °F 33.4 °F 88% 30.20 in 1.8 mi North 10.4 mph - N/A   Overcast
1:15 PM 36.7 °F 28.9 °F 33.4 °F 88% 30.20 in 1.8 mi North 11.5 mph - N/A   Overcast
1:35 PM 37.0 °F 31.0 °F 33.1 °F 86% 30.20 in 2.5 mi North 8.1 mph - N/A   Overcast
1:55 PM 37.4 °F 32.1 °F 33.3 °F 85% 30.19 in 2.5 mi North 6.9 mph - N/A   Overcast
2:15 PM 37.4 °F 32.1 °F 32.9 °F 84% 30.20 in 3.0 mi North 6.9 mph - N/A   Overcast
2:35 PM 37.6 °F 31.6 °F 33.1 °F 84% 30.20 in 3.0 mi North 8.1 mph - N/A   Haze
2:55 PM 37.4 °F 31.4 °F 32.9 °F 84% 30.21 in 3.0 mi North 8.1 mph - N/A   Overcast
3:16 PM 37.4 °F 33.8 °F 32.9 °F 84% 30.21 in 4.0 mi North 4.6 mph - N/A   Overcast
3:35 PM 37.6 °F 33.1 °F 32.9 °F 83% 30.23 in 4.0 mi NW 5.8 mph - N/A   Haze
3:55 PM 37.4 °F 31.4 °F 32.5 °F 83% 30.23 in 4.0 mi NNW 8.1 mph - N/A   Overcast
4:15 PM 37.4 °F 31.4 °F 32.4 °F 82% 30.23 in 4.0 mi NNW 8.1 mph - N/A   Haze
4:35 PM 37.4 °F 32.1 °F 32.0 °F 81% 30.25 in 4.0 mi NNW 6.9 mph - N/A   Haze
4:55 PM 36.9 °F 31.4 °F 32.0 °F 83% 30.26 in 4.0 mi NNW 6.9 mph - N/A   Haze
5:15 PM 36.9 °F 32.2 °F 32.0 °F 83% 30.27 in 4.0 mi NNW 5.8 mph - N/A   Haze
5:35 PM 36.5 °F 31.8 °F 32.0 °F 84% 30.27 in 4.0 mi NNW 5.8 mph - N/A   Haze
5:55 PM 36.0 °F 32.1 °F 32.0 °F 86% 30.28 in 4.0 mi NNW 4.6 mph - N/A   Overcast
6:15 PM 36.0 °F 32.1 °F 31.8 °F 85% 30.28 in 4.0 mi NNW 4.6 mph - N/A   Overcast
6:35 PM 35.2 °F 31.2 °F 31.8 °F 87% 30.29 in 3.0 mi NW 4.6 mph - N/A   Overcast
6:55 PM 35.4 °F 30.5 °F 31.8 °F 87% 30.29 in 3.0 mi NW 5.8 mph - N/A   Overcast
7:15 PM 35.1 °F 29.3 °F 31.8 °F 88% 30.29 in 2.5 mi NW 6.9 mph - N/A   Overcast
7:35 PM 34.7 °F 29.6 °F 31.8 °F 89% 30.29 in 2.0 mi NW 5.8 mph - N/A   Overcast
7:56 PM 34.5 °F 30.4 °F 31.8 °F 90% 30.29 in 2.0 mi NW 4.6 mph - N/A   Overcast
8:15 PM 34.0 °F 29.8 °F 31.6 °F 91% 30.30 in 2.0 mi NW 4.6 mph - N/A   Overcast
8:35 PM 33.8 °F 30.8 °F 31.5 °F 91% 30.30 in 2.0 mi NW 3.5 mph - N/A   Overcast
8:55 PM 33.1 °F 30.0 °F 31.1 °F 92% 30.31 in 2.0 mi NNW 3.5 mph - N/A   Overcast
9:15 PM 33.1 °F 30.0 °F 31.1 °F 92% 30.31 in 2.0 mi NNW 3.5 mph - N/A   Overcast
9:35 PM 33.4 °F - 31.1 °F 91% 30.31 in 2.0 mi Calm Calm - N/A   Overcast
9:55 PM 33.8 °F - 31.5 °F 91% 30.31 in 2.0 mi Calm Calm - N/A   Overcast
10:15 PM 33.3 °F - 31.5 °F 93% 30.31 in 1.8 mi Calm Calm - N/A   Overcast
10:35 PM 33.8 °F - 31.5 °F 91% 30.31 in 1.8 mi Calm Calm - N/A   Overcast
10:55 PM 33.4 °F - 31.3 °F 92% 30.30 in 2.0 mi Calm Calm - N/A   Overcast
11:15 PM 33.6 °F - 31.1 °F 90% 30.30 in 2.5 mi Calm Calm - N/A   Overcast
11:35 PM 33.3 °F - 31.1 °F 92% 30.30 in 2.0 mi Calm Calm - N/A   Overcast
11:55 PM 33.1 °F - 31.3 °F 93% 30.30 in 2.0 mi Calm Calm - N/A   Overcast